RH
92 78 78 71 70 68 72 70 67 53 48 45 42 39 38 37 34 31 31 30 35 33 32 31 33 33 36 33 28 22 24 26 29 53 57 59 69 65 71 74 80 82 83 89
55 44 52 52 58 63 56 59 62 60 58 48 43 40 38 37 36 33 29 31 33 36 34 34 33 33 33 36 34 28 28 31 32 33 53 44 61 60 67 68 69 76 85 82
78 60 64 59 44 63 63 62 60 62 60 57 47 42 43 42 39 35 34 33 34 37 36 40 36 35 34 35 37 29 26 25 24 30 31 34 41 48 59 61 60 58 65 67
82 78 82 46 38 44 52 43 26 36 54 37 39 48 39 38 41 39 38 36 34 33 37 39 39 38 37 36 37 37 34 37 37 34 35 38 38 40 52 64 64 55 57 63
98 94 54 45 41 32 29 28 30 28 27 27 28 42 44 40 42 43 41 38 34 35 34 34 35 39 37 32 36 37 38 36 42 44 46 51 52 44 57 63 67 70 69 66
98 93 81 39 45 48 39 36 34 44 50 57 49 52 52 45 42 44 47 43 37 35 30 32 37 38 37 33 32 33 39 41 44 47 54 68 64 48 49 56 62 62 60 62
97 96 77 52 47 48 71 52 57 70 78 78 78 80 59 49 50 46 46 44 44 39 32 31 35 35 34 36 35 35 37 44 50 48 48 63 58 57 60 58 50 48 70 70
94 94 84 54 81 75 65 54 50 53 60 54 68 83 80 61 68 54 47 47 47 43 41 36 31 30 31 34 38 40 42 49 52 51 46 48 54 55 70 74 58 50 62 84
81 75 64 64 72 66 57 50 42 39 38 57 65 74 83 73 77 76 58 52 46 44 41 38 37 35 31 30 37 46 60 56 41 35 38 42 44 47 49 48 41 52 55 81
52 48 48 44 65 60 49 42 40 38 35 45 58 78 66 69 71 76 84 63 55 47 44 43 41 39 37 42 46 47 46 41 47 52 38 33 38 44 43 58 83 75 98 98
73 69 56 52 44 40 43 58 54 37 33 42 61 70 76 76 43 49 78 87 69 70 57 48 53 53 54 56 63 63 63 54 55 52 51 43 42 47 57 75 95 100 100 100
65 65 62 50 49 47 44 51 57 70 59 62 68 74 69 72 73 70 66 84 82 83 81 75 70 66 64 68 72 72 74 70 70 66 67 65 63 60 60 88 99 99 98 98
69 78 75 71 66 61 54 45 61 84 84 75 75 78 96 86 71 78 77 62 52 81 98 90 84 98 88 88 84 87 96 93 91 79 76 81 86 91 94 98 98 98 97 98
86 84 77 83 78 68 68 67 86 81 90 83 75 80 76 66 73 83 77 64 52 57 95 90 87 100 99 99 99 100 99 98 99 98 97 96 100 100 100 100 100 99 98 97
77 93 96 87 76 86 86 93 92 93 93 96 86 76 70 72 83 68 63 59 58 69 74 84 76 81 93 96 96 94 96 98 96 89 88 95 99 100 100 100 100 98 96 96
74 87 85 81 81 85 96 97 99 96 93 88 71 61 55 51 50 59 70 65 67 72 92 90 95 97 100 99 97 90 91 99 98 99 99 100 100 99 98 99 97 96 95 95
73 87 87 81 94 98 97 100 96 94 85 78 73 74 76 87 88 69 84 80 76 80 100 100 100 100 100 100 100 98 99 97 100 99 97 97 98 97 97 96 95 96 95 94
76 85 85 95 97 98 97 99 96 98 93 82 84 94 99 100 95 96 99 99 90 83 92 100 100 99 99 98 97 98 97 96 96 97 95 96 96 96 95 95 94 93 91 90
94 95 87 86 100 100 98 97 96 93 93 95 100 100 97 96 98 98 98 99 99 99 100 100 98 97 96 96 95 96 97 96 96 96 96 96 96 96 95 95 95 94 94 92
98 99 95 98 99 99 100 100 100 100 100 100 100 100 98 100 99 98 98 97 96 96 97 96 94 94 95 95 96 95 95 95 96 95 94 95 95 95 94 86 65 35 15 8
98 98 97 99 99 100 99 97 97 99 100 100 98 97 96 97 96 95 94 95 96 95 96 97 97 96 95 95 95 95 95 95 95 92 82 62 29 10 8 8 7 7 7 7
96 96 96 96 97 96 96 98 98 97 98 97 95 96 95 96 95 95 96 96 96 96 96 96 96 96 96 94 91 79 54 22 10 8 8 8 7 7 7 7 7 7 8 8
95 96 96 97 97 97 96 97 96 96 96 95 95 95 96 96 96 96 96 96 96 96 95 92 76 44 19 10 8 8 8 7 7 7 7 7 8 8 8 8 9 9 10 12
95 96 96 96 96 96 97 96 96 95 95 95 96 96 96 96 96 95 89 65 30 14 10 10 9 9 8 8 7 7 7 8 8 9 10 10 10 10 10 10 12 13 15 16
97 97 97 97 98 97 97 96 96 97 97 97 94 84 59 28 19 13 10 10 10 10 9 8 8 8 8 9 9 10 10 11 11 12 12 12 11 12 12 14 16 19 21 22
97 98 98 98 98 96 96 97 96 90 64 26 15 12 12 11 11 11 10 10 9 9 10 10 10 11 11 11 12 12 13 13 14 14 14 14 14 14 16 20 22 24 25 28
98 98 97 97 96 96 96 86 51 26 16 14 13 13 12 11 11 10 10 11 11 12 12 12 13 13 14 15 15 16 17 18 19 19 18 16 16 17 20 24 27 30 32 35
Wind_Speed
6 5 10 13 15 18 19 18 22 20 25 23 24 24 21 21 18 22 17 14 15 20 20 16 15 13 12 8 11 15 17 17 18 23 27 25 29 26 29 35 28 28 31 37
14 13 17 20 19 19 27 28 31 27 30 25 13 18 23 22 23 24 22 16 20 24 21 19 19 17 18 15 12 14 15 14 14 17 22 23 28 27 29 28 29 30 30 31
8 9 12 16 18 4 6 8 16 22 22 23 27 23 17 14 19 26 22 21 21 27 28 23 23 20 19 19 18 15 12 12 16 18 17 18 22 26 30 30 27 28 30 30
9 5 7 13 14 14 15 16 23 23 23 22 23 31 32 26 21 23 22 24 26 28 33 33 31 26 25 24 24 21 16 16 16 19 20 21 21 25 28 30 29 30 31 32
6 12 17 14 11 16 19 23 21 25 26 28 24 24 32 28 21 25 23 20 21 25 29 32 35 32 27 28 27 28 25 22 19 20 22 24 24 24 29 31 34 34 34 35
8 4 5 7 10 5 13 24 18 19 19 23 24 20 19 28 32 25 27 27 22 24 25 27 30 35 33 32 30 30 29 25 24 24 25 28 29 28 28 30 32 36 38 39
15 9 14 18 19 17 6 11 13 15 15 18 13 11 11 17 25 30 26 29 35 27 25 25 29 31 34 37 35 31 31 29 27 30 30 33 33 30 31 33 34 36 39 40
17 9 12 6 7 1 10 12 15 11 9 19 17 11 6 15 10 18 29 32 31 31 39 30 31 34 34 38 38 30 31 31 33 33 31 32 34 35 36 38 38 38 39 41
14 12 5 7 8 18 22 23 26 22 11 19 13 16 14 12 8 11 18 21 27 23 26 27 31 30 32 36 31 37 30 32 33 32 33 34 34 36 37 40 38 34 34 30
23 26 26 23 26 29 29 31 30 29 25 20 20 10 9 18 22 22 18 19 16 26 28 24 27 32 34 29 26 26 26 28 29 34 32 30 30 32 31 30 32 32 28 34
27 26 27 25 25 29 24 25 30 32 31 23 21 11 12 15 16 21 25 26 17 16 24 27 22 22 21 24 29 32 29 28 28 29 28 29 29 29 29 27 25 29 31 32
27 27 28 28 27 29 29 27 27 22 21 22 21 18 13 17 18 17 15 30 20 18 30 20 20 20 22 26 25 24 25 25 27 30 28 30 28 27 27 26 28 31 30 30
31 28 30 34 33 32 27 27 25 22 19 21 17 21 19 18 20 17 17 17 18 22 26 34 35 28 32 32 34 34 29 30 28 26 27 25 24 24 25 26 26 29 31 33
22 27 32 32 30 31 30 26 26 24 22 18 19 17 19 21 19 18 21 21 21 19 23 26 35 38 33 30 31 34 30 26 22 24 19 16 15 16 18 18 21 25 28 28
19 21 26 31 30 24 26 21 18 20 19 12 15 17 18 21 23 24 23 22 24 23 24 27 25 26 22 23 19 18 17 15 15 20 18 17 18 20 23 25 28 30 29 28
20 25 22 25 27 27 30 32 20 21 18 20 21 21 21 23 25 25 24 24 24 24 23 25 27 30 28 29 27 24 23 22 18 21 22 21 23 27 29 29 27 27 28 30
21 24 18 19 25 26 25 25 28 21 24 26 25 25 24 23 23 23 24 25 22 22 22 21 23 25 26 26 23 23 23 23 21 23 26 24 24 25 25 25 27 29 30 30
28 28 27 25 20 22 24 25 26 23 23 24 24 23 24 26 26 26 27 29 29 24 24 22 23 24 22 19 17 15 17 16 15 18 19 19 21 23 24 25 25 25 24 24
27 26 25 26 24 21 22 21 22 22 23 25 24 23 24 25 25 25 23 26 22 18 21 20 20 15 10 10 10 10 11 12 14 15 16 17 18 18 18 18 19 22 25 28
22 22 24 24 23 20 17 17 17 14 14 14 16 17 16 16 15 13 12 12 14 11 9 8 6 6 7 7 7 8 9 9 9 10 11 13 16 19 22 24 27 28 30 32
15 14 14 14 13 12 11 9 8 6 6 6 6 5 5 4 3 2 1 4 3 2 2 1 2 4 4 5 6 7 10 13 15 18 20 22 24 25 26 27 28 29 29 30
6 4 3 2 1 2 2 3 4 4 6 6 5 5 6 4 6 7 5 5 6 6 5 5 5 7 9 12 15 17 19 20 21 22 23 24 24 24 25 25 25 26 26 27
7 10 10 11 11 10 11 11 11 11 9 10 10 11 10 9 8 6 5 6 7 9 11 13 15 15 16 17 18 19 20 21 21 22 22 21 21 22 22 23 23 24 24 24
13 13 12 12 12 12 9 11 11 10 9 8 6 5 5 6 7 10 12 13 13 13 14 15 16 17 18 18 18 18 18 18 18 18 19 19 20 20 21 22 22 22 23 23
9 8 8 9 7 5 5 6 5 3 3 5 7 9 10 10 11 11 12 13 14 14 15 15 15 15 15 15 16 16 17 17 17 18 19 20 21 21 22 22 22 22 22 22
5 4 4 3 1 1 3 4 6 9 10 9 10 11 11 12 13 13 13 13 13 14 14 14 15 15 15 16 16 17 17 18 18 19 20 20 21 20 20 20 20 21 21 21
1 0 2 4 6 7 8 9 9 10 11 12 12 13 13 13 13 13 13 12 12 13 13 13 14 14 15 16 16 17 18 18 18 19 19 19 19 19 19 20 20 20 20 20
Wind_Direction
248 271 291 309 298 275 267 271 259 267 268 274 277 276 281 271 276 273 260 270 253 231 221 230 235 233 232 233 231 233 235 239 246 239 241 236 243 243 237 246 258 254 259 257
257 267 282 291 288 284 266 267 276 286 279 278 281 275 264 266 271 271 245 256 252 244 242 248 236 240 240 238 250 231 230 238 240 241 238 244 242 246 240 242 248 249 254 259
253 263 255 265 274 230 258 283 289 293 297 287 268 259 263 268 267 258 248 255 249 244 244 250 240 248 242 248 235 230 225 231 239 242 245 250 251 249 241 239 243 246 245 246
255 215 236 254 254 258 273 282 303 303 291 298 289 267 251 256 268 254 253 259 266 251 243 248 247 243 250 247 241 232 238 240 240 244 252 258 262 255 249 246 246 247 247 247
228 216 259 251 246 272 269 284 287 287 287 294 308 282 259 249 260 265 263 257 263 251 254 248 248 238 237 238 237 237 237 249 248 251 254 259 263 259 246 245 245 247 249 250
199 198 237 260 187 280 294 276 280 289 289 302 304 287 268 242 241 252 248 253 256 260 257 245 239 241 239 237 240 242 238 237 246 254 256 257 262 260 251 250 251 250 251 251
244 257 267 262 256 270 258 303 333 333 329 316 327 336 301 256 250 244 253 251 256 257 257 251 237 237 240 236 243 246 241 239 244 253 253 252 261 263 261 261 262 260 257 257
229 242 267 280 109 126 296 295 313 331 304 313 291 285 318 265 287 262 252 256 263 257 252 260 252 242 244 239 240 255 234 237 245 255 257 259 259 261 261 265 268 266 260 259
212 224 229 215 270 303 297 290 297 303 295 314 295 274 271 263 316 322 268 260 250 250 255 262 253 260 247 240 238 235 232 239 247 254 259 260 260 261 263 266 267 264 261 263
257 259 262 262 281 285 287 288 282 290 295 294 289 291 283 296 298 286 289 278 265 253 251 239 239 237 238 222 217 230 246 254 260 269 263 261 261 260 262 262 261 268 257 261
259 262 264 264 273 279 283 293 293 282 284 279 277 281 297 314 323 297 274 278 261 267 250 228 227 231 232 233 235 235 243 250 253 256 265 271 272 271 265 262 257 251 247 251
260 261 266 268 274 280 287 292 306 293 273 267 268 268 279 290 304 305 294 265 243 244 246 245 233 229 224 237 241 239 245 249 259 262 267 267 270 275 270 261 257 255 251 251
262 263 267 272 276 282 290 293 293 294 279 269 286 276 281 281 285 291 302 312 316 288 251 237 244 252 253 242 246 247 249 251 252 258 260 265 268 272 268 256 258 266 268 268
270 265 261 263 267 280 288 284 286 287 269 273 267 278 292 282 275 279 294 298 298 289 277 280 272 248 256 252 251 253 246 245 249 259 263 262 260 255 245 244 249 255 256 260
275 272 275 269 272 277 278 277 274 289 280 282 284 284 288 287 293 290 290 292 290 282 268 270 271 273 281 289 282 288 281 274 271 269 261 261 265 265 260 256 252 254 256 258
268 268 266 270 275 274 275 277 272 259 270 282 287 285 280 278 282 288 286 289 285 282 276 272 269 274 262 265 261 259 254 253 251 253 251 255 258 254 250 247 249 256 265 270
269 261 265 273 271 270 267 272 269 263 270 272 273 277 280 277 275 283 280 281 278 285 280 273 262 258 255 257 256 246 244 242 236 247 243 244 244 244 250 260 269 274 277 280
268 264 272 270 279 267 265 265 269 271 272 277 278 279 280 279 278 277 276 274 275 266 266 266 263 261 257 251 244 239 240 240 242 244 248 255 263 270 274 277 280 284 288 291
263 269 272 271 272 271 267 271 273 278 277 275 277 278 278 284 283 279 277 272 250 240 250 254 254 253 255 264 268 270 271 272 272 271 274 277 280 284 287 290 292 294 295 295
269 269 270 273 275 278 281 282 280 281 282 281 277 274 272 271 265 259 253 259 260 264 251 265 278 287 292 294 291 294 293 294 296 297 299 300 300 298 298 298 298 297 297 297
266 266 263 264 270 280 280 273 268 264 262 259 266 268 265 251 217 215 275 296 240 151 96 24 350 339 343 347 343 335 323 316 313 311 309 306 303 300 299 299 299 299 299 299
272 266 267 264 267 260 186 111 104 96 98 100 110 110 93 97 94 76 66 71 77 73 55 27 0 339 328 324 321 319 315 311 308 307 306 305 304 303 302 303 303 303 304 304
93 91 90 90 90 92 94 92 88 84 85 88 87 86 85 80 74 61 31 7 356 345 336 333 332 327 320 315 313 312 312 311 310 310 310 309 308 307 307 307 308 308 309 311
85 84 85 84 82 86 93 94 92 92 86 77 66 49 23 2 346 341 339 339 332 323 319 317 316 315 314 314 314 315 316 316 316 316 315 314 313 313 314 315 315 317 318 318
103 100 94 91 95 104 101 101 89 55 22 353 343 343 343 337 330 324 320 320 319 316 315 314 316 317 320 324 326 326 325 325 324 321 320 319 319 320 320 320 319 318 317 316
121 113 111 111 100 27 353 341 349 349 346 338 332 329 326 323 320 319 318 319 321 322 324 327 330 332 332 332 330 328 326 324 323 322 322 321 320 319 318 316 316 316 316 317
143 269 301 312 314 324 335 339 331 323 319 318 317 317 317 318 319 321 323 324 325 326 327 328 329 328 327 326 326 326 325 323 322 321 321 320 320 319 318 319 319 319 319 319